Time,TemperatureF,DewpointF,PressureIn,WindDirection,WindDirectionDegrees,WindSpeedMPH,WindSpeedGustMPH,Humidity,HourlyPrecipIn,Conditions,Clouds,dailyrainin,SoftwareType,DateUTC
2013-08-11 00:13:00,73.7,68.0,30.00,NE,40,0.0,0.0,82,0.00,,,0.00,weatherlink.com 1.10,2013-08-11 05:13:00,
2013-08-11 00:28:00,74.0,68.0,30.00,NE,40,0.0,0.0,81,0.00,,,0.00,weatherlink.com 1.10,2013-08-11 05:28:00,
2013-08-11 00:43:00,74.0,68.0,29.99,NE,40,0.0,0.0,81,0.00,,,0.00,weatherlink.com 1.10,2013-08-11 05:43:00,
2013-08-11 01:13:00,73.8,68.0,29.99,NNE,33,0.0,0.0,82,0.00,,,0.00,weatherlink.com 1.10,2013-08-11 06:13:00,
2013-08-11 01:28:00,73.1,68.0,29.98,North,5,3.0,6.0,84,0.00,,,0.00,weatherlink.com 1.10,2013-08-11 06:28:00,
2013-08-11 01:43:00,73.0,68.0,29.99,ESE,112,0.0,1.0,84,0.00,,,0.00,weatherlink.com 1.10,2013-08-11 06:43:00,
2013-08-11 01:58:00,72.3,68.0,29.99,ESE,112,0.0,0.0,85,0.00,,,0.00,weatherlink.com 1.10,2013-08-11 06:58:00,
2013-08-11 02:13:00,72.3,68.0,29.98,ESE,112,0.0,0.0,86,0.00,,,0.00,weatherlink.com 1.10,2013-08-11 07:13:00,
2013-08-11 02:28:00,72.0,68.0,29.98,ESE,112,0.0,0.0,87,0.00,,,0.00,weatherlink.com 1.10,2013-08-11 07:28:00,
2013-08-11 02:43:00,71.9,68.0,29.98,ESE,112,0.0,0.0,87,0.00,,,0.00,weatherlink.com 1.10,2013-08-11 07:43:00,
2013-08-11 02:58:00,71.1,67.0,29.99,ESE,112,0.0,0.0,88,0.00,,,0.00,weatherlink.com 1.10,2013-08-11 07:58:00,
2013-08-11 03:13:00,71.0,68.0,29.99,ESE,112,0.0,0.0,89,0.00,,,0.00,weatherlink.com 1.10,2013-08-11 08:13:00,
2013-08-11 03:28:00,70.9,68.0,29.98,ESE,112,0.0,0.0,89,0.00,,,0.00,weatherlink.com 1.10,2013-08-11 08:28:00,
2013-08-11 03:43:00,70.7,67.0,29.98,ESE,112,0.0,0.0,89,0.00,,,0.00,weatherlink.com 1.10,2013-08-11 08:43:00,
2013-08-11 03:58:00,69.5,67.0,29.99,ESE,112,0.0,0.0,90,0.00,,,0.00,weatherlink.com 1.10,2013-08-11 08:58:00,
2013-08-11 04:28:00,68.9,67.0,29.98,NNW,346,0.0,4.0,92,0.00,,,0.00,weatherlink.com 1.10,2013-08-11 09:28:00,
2013-08-11 04:43:00,68.8,66.0,29.98,NNW,346,0.0,0.0,92,0.00,,,0.00,weatherlink.com 1.10,2013-08-11 09:43:00,
2013-08-11 04:58:00,68.9,67.0,29.98,NNW,346,0.0,0.0,92,0.00,,,0.00,weatherlink.com 1.10,2013-08-11 09:58:00,
2013-08-11 05:13:00,68.7,67.0,29.98,NNW,346,0.0,0.0,93,0.00,,,0.00,weatherlink.com 1.10,2013-08-11 10:13:00,
2013-08-11 05:28:00,68.7,67.0,29.98,NNW,346,0.0,0.0,93,0.00,,,0.00,weatherlink.com 1.10,2013-08-11 10:28:00,
2013-08-11 05:43:00,68.5,67.0,29.98,NNW,346,0.0,0.0,93,0.00,,,0.00,weatherlink.com 1.10,2013-08-11 10:43:00,
2013-08-11 05:58:00,68.6,67.0,29.98,NNW,346,0.0,0.0,93,0.00,,,0.00,weatherlink.com 1.10,2013-08-11 10:58:00,
2013-08-11 06:13:00,68.4,66.0,29.98,NNW,346,0.0,0.0,93,0.00,,,0.00,weatherlink.com 1.10,2013-08-11 11:13:00,
2013-08-11 06:28:00,67.9,66.0,29.99,NNW,346,0.0,0.0,93,0.00,,,0.00,weatherlink.com 1.10,2013-08-11 11:28:00,
2013-08-11 06:43:00,67.4,66.0,30.00,NNW,346,0.0,0.0,94,0.00,,,0.00,weatherlink.com 1.10,2013-08-11 11:43:00,
2013-08-11 07:28:00,68.7,67.0,30.01,NNW,346,0.0,0.0,94,0.00,,,0.00,weatherlink.com 1.10,2013-08-11 12:28:00,
2013-08-11 07:43:00,69.7,68.0,30.01,SE,132,0.0,2.0,93,0.00,,,0.00,weatherlink.com 1.10,2013-08-11 12:43:00,
2013-08-11 07:58:00,71.1,69.0,30.02,ESE,105,0.0,1.0,92,0.00,,,0.00,weatherlink.com 1.10,2013-08-11 12:58:00,
2013-08-11 08:13:00,72.5,70.0,30.02,ESE,105,0.0,0.0,90,0.00,,,0.00,weatherlink.com 1.10,2013-08-11 13:13:00,
2013-08-11 08:28:00,74.4,70.0,30.02,ESE,105,0.0,0.0,87,0.00,,,0.00,weatherlink.com 1.10,2013-08-11 13:28:00,
2013-08-11 08:43:00,76.1,71.0,30.02,East,98,0.0,0.0,85,0.00,,,0.00,weatherlink.com 1.10,2013-08-11 13:43:00,
2013-08-11 08:59:00,77.8,72.0,30.02,East,98,0.0,0.0,82,0.00,,,0.00,weatherlink.com 1.10,2013-08-11 13:59:00,
2013-08-11 09:29:00,79.6,72.0,30.02,East,81,0.0,4.0,77,0.00,,,0.00,weatherlink.com 1.10,2013-08-11 14:29:00,
2013-08-11 09:44:00,81.2,71.0,30.02,ENE,60,0.0,5.0,72,0.00,,,0.00,weatherlink.com 1.10,2013-08-11 14:44:00,
2013-08-11 09:59:00,82.0,71.0,30.02,ENE,63,0.0,4.0,69,0.00,,,0.00,weatherlink.com 1.10,2013-08-11 14:59:00,
2013-08-11 10:14:00,82.8,71.0,30.02,NE,55,0.0,8.0,68,0.00,,,0.00,weatherlink.com 1.10,2013-08-11 15:14:00,
2013-08-11 10:29:00,83.4,71.0,30.02,ENE,58,0.0,4.0,66,0.00,,,0.00,weatherlink.com 1.10,2013-08-11 15:29:00,
2013-08-11 10:44:00,84.3,71.0,30.02,ENE,69,0.0,5.0,64,0.00,,,0.00,weatherlink.com 1.10,2013-08-11 15:44:00,
2013-08-11 10:59:00,85.2,71.0,30.02,ESE,120,2.0,4.0,62,0.00,,,0.00,weatherlink.com 1.10,2013-08-11 15:59:00,
2013-08-11 11:14:00,86.0,71.0,30.01,SE,136,0.0,5.0,61,0.00,,,0.00,weatherlink.com 1.10,2013-08-11 16:14:00,
2013-08-11 11:29:00,87.2,71.0,30.01,ESE,111,2.0,4.0,59,0.00,,,0.00,weatherlink.com 1.10,2013-08-11 16:29:00,
2013-08-11 11:44:00,87.4,70.0,30.01,NE,34,0.0,6.0,56,0.00,,,0.00,weatherlink.com 1.10,2013-08-11 16:44:00,
2013-08-11 11:59:00,88.4,69.0,30.01,NNW,337,0.0,9.0,53,0.00,,,0.00,weatherlink.com 1.10,2013-08-11 16:59:00,
2013-08-11 12:59:00,91.1,68.0,29.99,WNW,282,0.0,16.0,47,0.00,,,0.00,weatherlink.com 1.10,2013-08-11 17:59:00,
2013-08-11 13:44:00,92.8,68.0,29.97,NW,318,3.0,8.0,44,0.00,,,0.00,weatherlink.com 1.10,2013-08-11 18:44:00,
2013-08-11 13:59:00,93.0,69.0,29.97,NNW,346,0.0,9.0,45,0.00,,,0.00,weatherlink.com 1.10,2013-08-11 18:59:00,
2013-08-11 14:14:00,93.1,68.0,29.97,NE,55,0.0,9.0,44,0.00,,,0.00,weatherlink.com 1.10,2013-08-11 19:14:00,
2013-08-11 14:29:00,93.7,67.0,29.96,NW,305,3.0,8.0,42,0.00,,,0.00,weatherlink.com 1.10,2013-08-11 19:29:00,
2013-08-11 15:00:00,94.8,68.0,29.95,West,272,3.0,7.0,42,0.00,,,0.00,weatherlink.com 1.10,2013-08-11 20:00:00,
2013-08-11 15:15:00,94.4,68.0,29.94,WNW,285,7.0,12.0,42,0.00,,,0.00,weatherlink.com 1.10,2013-08-11 20:15:00,
2013-08-11 15:30:00,94.9,68.0,29.94,NNW,327,4.0,7.0,42,0.00,,,0.00,weatherlink.com 1.10,2013-08-11 20:30:00,
2013-08-11 15:45:00,95.6,68.0,29.93,NW,316,2.0,8.0,41,0.00,,,0.00,weatherlink.com 1.10,2013-08-11 20:45:00,
2013-08-11 16:00:00,95.3,69.0,29.92,East,99,2.0,10.0,43,0.00,,,0.00,weatherlink.com 1.10,2013-08-11 21:00:00,
2013-08-11 16:15:00,95.4,69.0,29.92,NNE,25,3.0,7.0,42,0.00,,,0.00,weatherlink.com 1.10,2013-08-11 21:15:00,
2013-08-11 16:45:00,96.5,70.0,29.91,ENE,66,0.0,6.0,42,0.00,,,0.00,weatherlink.com 1.10,2013-08-11 21:45:00,
2013-08-11 17:00:00,95.6,69.0,29.91,North,10,8.0,9.0,42,0.00,,,0.00,weatherlink.com 1.10,2013-08-11 22:00:00,
2013-08-11 17:30:00,95.8,69.0,29.90,NE,39,5.0,8.0,41,0.00,,,0.00,weatherlink.com 1.10,2013-08-11 22:30:00,
2013-08-11 17:45:00,95.6,69.0,29.90,NE,44,5.0,10.0,42,0.00,,,0.00,weatherlink.com 1.10,2013-08-11 22:45:00,
2013-08-11 18:00:00,95.7,69.0,29.90,NE,44,6.0,11.0,42,0.00,,,0.00,weatherlink.com 1.10,2013-08-11 23:00:00,
2013-08-11 18:30:00,95.1,68.0,29.89,NE,40,3.0,10.0,41,0.00,,,0.00,weatherlink.com 1.10,2013-08-11 23:30:00,
2013-08-11 18:45:00,95.1,68.0,29.89,ENE,58,8.0,10.0,41,0.00,,,0.00,weatherlink.com 1.10,2013-08-11 23:45:00,
2013-08-11 19:00:00,94.4,70.0,29.89,NE,40,2.0,9.0,45,0.00,,,0.00,weatherlink.com 1.10,2013-08-12 00:00:00,
2013-08-11 19:15:00,92.9,70.0,29.89,NE,42,2.0,8.0,47,0.00,,,0.00,weatherlink.com 1.10,2013-08-12 00:15:00,
2013-08-11 19:30:00,91.9,69.0,29.89,NE,52,2.0,7.0,48,0.00,,,0.00,weatherlink.com 1.10,2013-08-12 00:30:00,
2013-08-11 19:45:00,91.0,70.0,29.90,ENE,69,0.0,8.0,50,0.00,,,0.00,weatherlink.com 1.10,2013-08-12 00:45:00,
2013-08-11 20:00:00,90.1,70.0,29.91,ENE,77,1.0,4.0,52,0.00,,,0.00,weatherlink.com 1.10,2013-08-12 01:00:00,
2013-08-11 20:30:00,88.4,70.0,29.91,East,82,0.0,5.0,54,0.00,,,0.00,weatherlink.com 1.10,2013-08-12 01:30:00,
2013-08-11 20:45:00,87.6,69.0,29.92,East,80,0.0,4.0,55,0.00,,,0.00,weatherlink.com 1.10,2013-08-12 01:45:00,
2013-08-11 21:00:00,86.5,69.0,29.92,East,101,0.0,3.0,57,0.00,,,0.00,weatherlink.com 1.10,2013-08-12 02:00:00,
2013-08-11 21:15:00,85.7,70.0,29.92,ESE,109,0.0,5.0,60,0.00,,,0.00,weatherlink.com 1.10,2013-08-12 02:15:00,
2013-08-11 21:30:00,84.8,70.0,29.93,ESE,105,0.0,5.0,62,0.00,,,0.00,weatherlink.com 1.10,2013-08-12 02:30:00,
2013-08-11 21:45:00,84.3,71.0,29.93,ESE,109,0.0,4.0,64,0.00,,,0.00,weatherlink.com 1.10,2013-08-12 02:45:00,
2013-08-11 22:00:00,83.9,71.0,29.94,East,101,0.0,6.0,65,0.00,,,0.00,weatherlink.com 1.10,2013-08-12 03:00:00,
2013-08-11 22:15:00,83.2,71.0,29.94,East,101,0.0,1.0,67,0.00,,,0.00,weatherlink.com 1.10,2013-08-12 03:15:00,
2013-08-11 22:45:00,83.0,71.0,29.95,East,100,0.0,1.0,68,0.00,,,0.00,weatherlink.com 1.10,2013-08-12 03:45:00,
2013-08-11 23:00:00,82.9,72.0,29.95,East,100,0.0,1.0,69,0.00,,,0.00,weatherlink.com 1.10,2013-08-12 04:00:00,
2013-08-11 23:15:00,83.0,72.0,29.95,East,100,0.0,0.0,69,0.00,,,0.00,weatherlink.com 1.10,2013-08-12 04:15:00,
2013-08-11 23:30:00,82.5,71.0,29.95,East,100,0.0,0.0,69,0.00,,,0.00,weatherlink.com 1.10,2013-08-12 04:30:00,
2013-08-11 23:45:00,82.2,72.0,29.94,East,101,0.0,0.0,70,0.00,,,0.00,weatherlink.com 1.10,2013-08-12 04:45:00,